CW5437 Weather Reports


time (UTC)temp
F
wind
direction
speed
knots
gust
knots
rain 1hr
in
rain 24hr
in
rain mn
in
humidity
%
barometer
mb
20260902063001 72 205 3.5 5.2 0.00 0.00 0.00 87 1016.3
20260902062002 72 250 0.0 0.9 0.00 0.00 0.00 88 1016.2
20260902060002 72 160 2.6 3.5 0.00 0.00 0.00 88 1016.2
20260902055004 73 160 1.7 2.6 0.00 0.00 0.00 89 1016.1
20260902054004 72 183 2.6 3.5 0.00 0.00 0.00 90 1016.2
20260902053005 71 205 1.7 2.6 0.00 0.00 0.00 92 1016.1
20260902052006 71 273 0.0 0.9 0.00 0.00 0.00 93 1016.0
20260902051009 71 25 0.0 0.0 0.00 0.00 0.00 92 1016.0
20260902045002 71 70 0.0 1.7 0.00 0.00 0.00 92 1016.0
20260902044002 71 160 0.9 1.7 0.00 0.00 0.00 92 1015.9
20260902043003 71 228 0.9 0.9 0.00 0.00 0.00 92 1016.0
20260902042005 71 205 0.0 0.9 0.00 0.00 0.00 92 1016.0
20260902041005 71 228 0.0 0.0 0.00 0.00 0.00 92 1016.0
20260902040005 71 3 0.9 0.9 0.00 0.00 0.00 92 1016.0
20260902035005 71 115 0.9 0.9 0.00 0.00 0.00 92 1015.9
20260902034005 71 205 1.7 1.7 0.00 0.00 0.00 91 1015.7
20260902033006 71 115 0.9 0.9 0.00 0.00 0.00 91 1015.8
20260902032007 71 205 0.0 0.0 0.00 0.00 0.00 90 1015.6
20260902030002 72 183 0.0 0.9 0.00 0.00 0.00 89 1015.4
20260902025003 72 250 0.9 0.9 0.00 0.00 0.00 87 1015.4
20260902023003 73 318 0.0 0.9 0.00 0.00 0.00 86 1015.3
20260902022004 74 318 0.9 0.9 0.00 0.00 0.00 85 1015.3
20260902021005 74 205 0.9 1.7 0.00 0.00 0.00 84 1015.3
20260902020006 74 273 0.0 0.9 0.00 0.00 0.00 84 1015.4
20260902015007 75 115 1.7 2.6 0.00 0.00 0.00 83 1015.4
20260902014002 75 138 2.6 3.5 0.00 0.00 0.00 82 1015.5
20260902013003 75 183 2.6 3.5 0.00 0.00 0.00 82 1015.4
20260902005002 77 250 0.9 0.9 0.00 0.00 0.00 81 1015.4
20260902003003 78 138 2.6 3.5 0.00 0.00 0.00 80 1015.6
20260902002004 78 205 3.5 3.5 0.00 0.00 0.00 80 1015.4
20260902001005 78 295 2.6 3.5 0.00 0.00 0.00 79 1015.2
20260902000005 78 228 0.0 0.9 0.00 0.00 0.00 78 1015.2
20260901234006 79 273 1.7 4.3 0.00 0.00 0.00 77 1015.3
20260901233007 79 273 3.5 7.8 0.00 0.00 0.00 77 1015.3
20260901231007 82 273 3.5 6.1 0.00 0.00 0.00 73 1015.0
20260901230002 82 228 0.9 2.6 0.00 0.00 0.00 71 1014.6
20260901225003 83 273 1.7 3.5 0.00 0.00 0.00 70 1014.2
20260901224004 83 340 1.7 3.5 0.00 0.00 0.00 70 1014.4
20260901223006 83 318 2.6 6.1 0.00 0.00 0.00 69 1014.6
20260901222007 83 25 1.7 5.2 0.00 0.00 0.00 69 1014.6
20260901221007 84 273 2.6 6.1 0.00 0.00 0.00 67 1014.7
20260901220002 85 3 1.7 3.5 0.00 0.00 0.00 67 1014.7
20260901215002 85 250 1.7 5.2 0.00 0.00 0.00 65 1014.8
20260901214003 85 183 3.5 7.8 0.00 0.00 0.00 65 1014.8
20260901213004 86 318 2.6 5.2 0.00 0.00 0.00 64 1014.9
20260901212005 86 250 3.5 7.8 0.00 0.00 0.00 64 1014.7
20260901205005 87 295 3.5 7.0 0.00 0.00 0.00 65 1014.5
20260901204006 86 25 1.7 5.2 0.00 0.00 0.00 67 1014.6
20260901203007 87 250 1.7 8.7 0.00 0.00 0.00 65 1014.8
20260901201007 88 115 3.5 6.1 0.00 0.00 0.00 62 1014.6
20260901200001 89 273 0.9 2.6 0.00 0.00 0.00 62 1014.5
20260901195003 88 340 5.2 9.6 0.00 0.00 0.00 60 1014.5
20260901194004 88 250 7.0 13.0 0.00 0.00 0.00 60 1014.6
20260901193004 88 318 5.2 9.6 0.00 0.00 0.00 60 1014.6
20260901192005 88 250 5.2 7.8 0.00 0.00 0.00 62 1014.5
20260901191006 88 295 4.3 10.4 0.00 0.00 0.00 61 1014.6
20260901190005 89 273 1.7 3.5 0.00 0.00 0.00 61 1014.6
20260901184005 88 273 4.3 9.6 0.00 0.00 0.00 60 1014.7
20260901183006 89 250 4.3 7.8 0.00 0.00 0.00 60 1014.7
20260901182006 88 228 3.5 7.8 0.00 0.00 0.00 62 1014.7
20260901181007 87 228 6.1 12.2 0.00 0.00 0.00 61 1014.7
20260901180007 88 228 3.5 7.8 0.00 0.00 0.00 62 1014.7
20260901175008 88 250 9.6 13.9 0.00 0.00 0.00 63 1014.9
20260901174002 88 273 8.7 13.9 0.00 0.00 0.00 62 1014.7
20260901173002 87 250 8.7 16.5 0.00 0.00 0.00 64 1014.6
20260901172003 87 228 1.7 3.5 0.00 0.00 0.00 66 1014.7
20260901170002 84 228 9.6 13.0 0.00 0.00 0.00 67 1014.8
20260901165004 85 273 3.5 6.1 0.00 0.00 0.00 68 1014.9
20260901164004 85 250 6.1 8.7 0.00 0.00 0.00 69 1014.9
20260901163005 84 273 9.6 14.8 0.00 0.00 0.00 69 1014.9
20260901162006 85 228 9.6 13.9 0.00 0.00 0.00 69 1014.8
20260901160006 84 340 1.7 4.3 0.00 0.00 0.00 70 1014.7
20260901155007 84 273 1.7 5.2 0.00 0.00 0.00 71 1014.9
20260901154008 83 273 3.5 6.1 0.00 0.00 0.00 73 1014.9
20260901153003 83 228 0.9 2.6 0.00 0.00 0.00 75 1014.9
20260901152004 82 318 1.7 5.2 0.00 0.00 0.00 75 1014.8
20260901151005 82 273 1.7 3.5 0.00 0.00 0.00 76 1014.9
20260901150006 82 250 6.1 9.6 0.00 0.00 0.00 75 1014.8
20260901145007 80 250 4.3 7.8 0.00 0.00 0.00 78 1014.9
20260901144002 80 273 1.7 4.3 0.00 0.00 0.00 79 1014.9
20260901142002 79 250 3.5 6.1 0.00 0.00 0.00 79 1015.0
20260901141003 79 228 3.5 7.8 0.00 0.00 0.00 80 1015.1
20260901140004 78 70 1.7 5.2 0.00 0.00 0.00 81 1015.1
20260901135004 77 273 5.2 10.4 0.00 0.00 0.00 82 1015.0
20260901134005 77 273 1.7 5.2 0.00 0.00 0.00 83 1015.2
20260901133005 77 250 3.5 6.1 0.00 0.00 0.00 83 1015.1
20260901132006 77 250 5.2 7.8 0.00 0.00 0.00 83 1015.2
20260901131002 76 250 1.7 3.5 0.00 0.00 0.00 84 1015.2
20260901130002 76 250 2.6 6.1 0.00 0.00 0.00 84 1015.4
20260901124002 75 250 3.5 7.8 0.00 0.00 0.00 85 1015.4
20260901122002 75 273 2.6 4.3 0.00 0.01 0.00 85 1015.4
20260901120002 74 250 3.5 5.2 0.00 0.05 0.00 86 1015.2
20260901115003 74 228 1.7 3.5 0.00 0.06 0.00 86 1015.1
20260901114003 74 250 0.9 2.6 0.00 0.06 0.00 85 1015.1
20260901113004 74 205 0.9 3.5 0.00 0.06 0.00 85 1015.1
20260901112005 74 228 1.7 3.5 0.00 0.06 0.00 84 1014.9
20260901111005 74 228 5.2 7.8 0.00 0.06 0.00 84 1014.9
20260901110006 74 250 5.2 9.6 0.00 0.07 0.00 83 1014.8
20260901103005 75 205 5.2 9.6 0.00 0.15 0.00 82 1014.5
20260901102005 75 205 5.2 8.7 0.00 0.16 0.00 81 1014.5
20260901101006 75 228 7.8 10.4 0.00 0.17 0.00 81 1014.4
20260901100007 75 205 7.0 12.2 0.00 0.17 0.00 80 1014.4
20260901095001 75 228 7.8 12.2 0.00 0.17 0.00 80 1014.5
20260901094002 75 205 6.1 9.6 0.00 0.17 0.00 80 1014.4
20260901093003 75 250 6.1 9.6 0.00 0.17 0.00 80 1014.5
20260901092002 75 228 8.7 10.4 0.00 0.18 0.00 80 1014.5
20260901090006 75 228 7.0 11.3 0.00 0.18 0.00 82 1014.5
20260901085006 74 228 4.3 9.6 0.00 0.18 0.00 86 1014.5
20260901084006 73 228 4.3 7.8 0.00 0.18 0.00 91 1014.5
20260901083001 71 228 3.5 6.1 0.00 0.18 0.00 96 1014.6
20260901082002 70 250 2.6 3.5 0.00 0.18 0.00 97 1014.8
20260901081002 70 228 0.9 2.6 0.00 0.18 0.00 98 1014.7
20260901080006 70 250 0.9 1.7 0.00 0.18 0.00 98 1014.6
20260901075001 70 340 0.9 0.9 0.00 0.19 0.00 98 1014.8
20260901072005 69 340 0.0 0.9 0.00 0.20 0.00 97 1015.0
20260901071005 70 93 0.9 1.7 0.00 0.21 0.00 97 1015.1
20260901070004 69 48 1.7 2.6 0.00 0.21 0.00 97 1015.2
20260901065004 69 3 0.9 1.7 0.00 0.21 0.00 97 1015.4
20260901064004 69 93 0.9 0.9 0.00 0.21 0.00 97 1015.4